This demonstration page uses our WeatherBlox Daily Observations layout. Learn more.

Left ArrowRight Arrow

39.12711, -84.51439

Hourly Observations for October 24, 2020

Temp ( °F °C ) Dew Point ( °F °C ) Humidity (%) Winds ( mph kmh ) Pressure ( in mb ) Visibility ( mi km ) Precip ( " mm )
12:53 am 00:53 Cloudy 52 11.1 46 7.8 80 80 NNW 10 17 30.11 1020 10 16 0.00 0.00
1:53 am 01:53 Cloudy 50 10 46 7.8 86 86 NNW 8 13 30.12 1020 8 13 0.00 0.00
2:53 am 02:53 Cloudy 51 10.6 43 6.1 74 74 NNW 9 15 30.14 1021 10 16 0.00 0.00
3:53 am 03:53 Cloudy 50 10 42 5.6 74 74 N 12 19 30.15 1021 10 16 0.00 0.00
4:53 am 04:53 Cloudy 49 9.4 41 5 74 74 N 14 22 30.16 1021 10 16 0.00 0.00
5:53 am 05:53 Cloudy 48 8.9 38 3.3 68 68 N 12 19 30.18 1022 10 16 0.00 0.00
6:07 am 06:07 Cloudy 48 8.9 38 3.3 68 68 N 8 13 30.20 1023 10 16 0.00 0.00
6:38 am 06:38 Cloudy 48 8.9 38 3.3 68 68 N 14 22 30.20 1023 10 16 0.00 0.00
6:53 am 06:53 Cloudy 48 8.9 39 3.9 71 71 N 12 19 30.19 1023 10 16 0.00 0.00
7:29 am 07:29 Partly Cloudy 46 7.8 38 3.3 73 73 N 8 13 30.21 1023 10 16 0.00 0.00
7:36 am 07:36 Cloudy 46 7.8 38 3.3 73 73 N 7 11 30.21 1023 10 16 0.00 0.00
7:53 am 07:53 Clear 45 7.2 36 2.2 71 71 N 12 19 30.20 1023 10 16 0.00 0.00
8:53 am 08:53 Partly Cloudy 45 7.2 36 2.2 71 71 N 12 19 30.21 1023 10 16 0.00 0.00
9:53 am 09:53 Mostly Cloudy 45 7.2 37 2.8 74 74 N 8 13 30.23 1024 10 16 0.00 0.00
10:53 am 10:53 Mostly Cloudy 47 8.3 37 2.8 69 69 NNE 13 20 30.22 1024 10 16 0.00 0.00
11:53 am 11:53 Cloudy 48 8.9 37 2.8 66 66 N 12 19 30.22 1023 10 16 0.00 0.00
12:53 pm 12:53 Cloudy 49 9.4 38 3.3 66 66 NNE 7 11 30.21 1023 10 16 0.00 0.00
1:53 pm 13:53 Mostly Cloudy 51 10.6 38 3.3 61 61 VRB 3 6 30.18 1022 10 16 0.00 0.00
2:53 pm 14:53 Mostly Cloudy 52 11.1 38 3.3 59 59 NE 10 17 30.16 1021 10 16 0.00 0.00
3:53 pm 15:53 Mostly Cloudy 53 11.7 38 3.3 57 57 N 6 9 30.14 1021 10 16 0.00 0.00
4:00 pm 16:00 Partly Cloudy 53 11.7 38 3.3 57 57 N 9 15 30.14 1021 10 16 0.00 0.00
4:53 pm 16:53 Partly Cloudy 53 11.7 37 2.8 55 55 N 8 13 30.12 1020 10 16 0.00 0.00
5:53 pm 17:53 Mostly Sunny 51 10.6 37 2.8 59 59 NE 8 13 30.13 1020 10 16 0.00 0.00
6:53 pm 18:53 Clear 48 8.9 37 2.8 66 66 NE 7 11 30.14 1021 10 16 0.00 0.00
7:53 pm 19:53 Mostly Clear 46 7.8 37 2.8 71 71 NE 3 6 30.14 1021 10 16 0.00 0.00
8:53 pm 20:53 Partly Cloudy 45 7.2 38 3.3 77 77 NE 6 9 30.14 1021 10 16 0.00 0.00
9:53 pm 21:53 Cloudy 48 8.9 37 2.8 66 66 NE 7 11 30.16 1021 10 16 0.00 0.00
10:53 pm 22:53 Cloudy 47 8.3 37 2.8 69 69 NE 8 13 30.16 1021 10 16 0.00 0.00
11:53 pm 23:53 Cloudy 47 8.3 37 2.8 69 69 NE 12 19 30.15 1021 10 16 0.00 0.00

Powered by AerisWeather